Weather History for Laconia, NH

Change the Weather History Date:

Sunday, February 23, 2014

  Actual Average Record
Temperature  
Mean Temperature 36 °F -  
Max Temperature 44 °F 41 °F 55 °F (1990)
Min Temperature 28 °F 18 °F 3 °F (1999)
Degree Days  
Heating Degree Days 29    
Moisture  
Dew Point 18 °F    
Average Humidity 44    
Maximum Humidity 74    
Minimum Humidity 29    
Precipitation  
Precipitation 0.00 in - - ()
Sea Level Pressure  
Sea Level Pressure 29.85 in    
Wind  
Wind Speed 9 mph (SW)    
Max Wind Speed 15 mph    
Max Gust Speed 26 mph    
Visibility 10 miles    
Events      
Averages and records for this station are not official NWS values.
T = Trace of Precipitation, MM = Missing Value Source: NWS Daily Summary

Daily Weather History Graph

Daily Weather History Graph

Search for Another Location

Airport:

Trip Planner

Search our weather history database for the weather conditions in past years. The results will help you decide how hot, cold, wet, or windy it might be!

Date:

Astronomy

Feb. 23, 2014 Rise Set
Actual Time 6:31 AM EST 5:26 PM EST
Civil Twilight 6:03 AM EST 5:55 PM EST
Nautical Twilight 5:29 AM EST 6:28 PM EST
Astronomical Twilight 4:56 AM EST 7:02 PM EST
Moon 1:32 AM EST (2/23) 11:20 AM EST (2/23)
Length of Visible Light 11h 52m
Length of Day
10h 54m
Last Quarter, 39% of the Moon is Illuminated
Feb 23
Last Quarter
Mar 1
New
Mar 8
First Quarter
Mar 16
Full
Mar 23
Last Quarter

Hourly Weather History & Observations

Time (EST) Temp. Windchill Dew Point Humidity Pressure Visibility Wind Dir Wind Speed Gust Speed Precip Events Conditions
12:15 AM 39.2 °F 30.8 °F 15.8 °F 39% 29.89 in 10.0 mi WSW 15.0 mph 26.5 mph N/A   Clear
12:35 AM 37.4 °F 30.3 °F 17.6 °F 45% 29.89 in 10.0 mi SW 10.4 mph - N/A   Clear
12:55 AM 37.4 °F 30.8 °F 17.6 °F 45% 29.90 in 10.0 mi SW 9.2 mph - N/A   Partly Cloudy
1:15 AM 35.6 °F 29.2 °F 17.6 °F 48% 29.90 in 10.0 mi WSW 8.1 mph - N/A   Mostly Cloudy
1:35 AM 35.6 °F 29.2 °F 15.8 °F 44% 29.91 in 10.0 mi WSW 8.1 mph - N/A   Scattered Clouds
1:55 AM 37.4 °F 30.8 °F 17.6 °F 45% 29.91 in 10.0 mi WSW 9.2 mph - N/A   Mostly Cloudy
2:15 AM 37.4 °F 31.4 °F 17.6 °F 45% 29.91 in 10.0 mi WSW 8.1 mph - N/A   Scattered Clouds
2:35 AM 37.4 °F 31.4 °F 17.6 °F 45% 29.92 in 10.0 mi SW 8.1 mph - N/A   Mostly Cloudy
2:55 AM 37.4 °F 32.8 °F 17.6 °F 45% 29.92 in 10.0 mi SSW 5.8 mph - N/A   Mostly Cloudy
3:15 AM 37.4 °F 31.4 °F 19.4 °F 48% 29.92 in 10.0 mi SW 8.1 mph - N/A   Partly Cloudy
3:35 AM 33.8 °F 28.6 °F 19.4 °F 56% 29.92 in 10.0 mi SW 5.8 mph - N/A   Partly Cloudy
3:55 AM 35.6 °F 30.7 °F 21.2 °F 56% 29.92 in 10.0 mi SW 5.8 mph - N/A   Scattered Clouds
4:15 AM 35.6 °F 31.7 °F 19.4 °F 52% 29.92 in 10.0 mi SW 4.6 mph - N/A   Scattered Clouds
4:35 AM 33.8 °F 30.8 °F 19.4 °F 56% 29.92 in 10.0 mi SW 3.5 mph - N/A   Scattered Clouds
4:55 AM 28.4 °F 23.3 °F 19.4 °F 69% 29.92 in 10.0 mi WSW 4.6 mph - N/A   Partly Cloudy
5:15 AM 28.4 °F 24.6 °F 21.2 °F 74% 29.91 in 10.0 mi WSW 3.5 mph - N/A   Clear
5:35 AM 28.4 °F 23.3 °F 21.2 °F 74% 29.91 in 10.0 mi SW 4.6 mph - N/A   Clear
5:55 AM 28.4 °F 22.2 °F 19.4 °F 69% 29.92 in 10.0 mi SW 5.8 mph - N/A   Clear
6:15 AM 28.4 °F 24.6 °F 19.4 °F 69% 29.91 in 10.0 mi South 3.5 mph - N/A   Clear
6:35 AM 28.4 °F 23.3 °F 21.2 °F 74% 29.92 in 10.0 mi SSW 4.6 mph - N/A   Mostly Cloudy
6:55 AM 30.2 °F 25.4 °F 21.2 °F 69% 29.91 in 10.0 mi WSW 4.6 mph - N/A   Overcast
7:15 AM 33.8 °F 30.8 °F 19.4 °F 56% 29.91 in 10.0 mi West 3.5 mph - N/A   Overcast
7:35 AM 33.8 °F 27.7 °F 19.4 °F 56% 29.92 in 10.0 mi SSW 6.9 mph - N/A   Overcast
7:55 AM 35.6 °F 32.8 °F 21.2 °F 56% 29.92 in 10.0 mi WSW 3.5 mph - N/A   Overcast
8:15 AM 37.4 °F 33.8 °F 21.2 °F 52% 29.92 in 10.0 mi West 4.6 mph - N/A   Overcast
8:35 AM 37.4 °F 30.8 °F 23.0 °F 56% 29.92 in 10.0 mi WSW 9.2 mph - N/A   Mostly Cloudy
8:55 AM 39.2 °F 32.5 °F 23.0 °F 52% 29.91 in 10.0 mi SW 10.4 mph - N/A   Mostly Cloudy
9:15 AM 39.2 °F 33.6 °F 23.0 °F 52% 29.91 in 10.0 mi WSW 8.1 mph - N/A   Scattered Clouds
9:35 AM 39.2 °F 34.2 °F 24.8 °F 56% 29.91 in 10.0 mi WSW 6.9 mph - N/A   Scattered Clouds
9:55 AM 39.2 °F 35.0 °F 24.8 °F 56% 29.90 in 10.0 mi WSW 5.8 mph - N/A   Mostly Cloudy
10:15 AM 41.0 °F 35.2 °F 24.8 °F 53% 29.89 in 10.0 mi SW 9.2 mph - N/A   Scattered Clouds
10:35 AM 42.8 °F 37.0 °F 23.0 °F 46% 29.88 in 10.0 mi SW 10.4 mph - N/A   Partly Cloudy
10:55 AM 42.8 °F 36.2 °F 23.0 °F 46% 29.88 in 10.0 mi SW 12.7 mph - N/A   Mostly Cloudy
11:15 AM 42.8 °F 36.2 °F 23.0 °F 46% 29.88 in 10.0 mi SW 12.7 mph - N/A   Mostly Cloudy
11:35 AM 42.8 °F 35.8 °F 23.0 °F 46% 29.87 in 10.0 mi SW 13.8 mph 18.4 mph N/A   Mostly Cloudy
11:55 AM 42.8 °F 36.6 °F 23.0 °F 46% 29.86 in 10.0 mi SW 11.5 mph 17.3 mph N/A   Scattered Clouds
12:15 PM 42.8 °F 36.2 °F 23.0 °F 46% 29.85 in 10.0 mi SW 12.7 mph - N/A   Mostly Cloudy
12:35 PM 42.8 °F 35.8 °F 21.2 °F 42% 29.85 in 10.0 mi SW 13.8 mph - N/A   Overcast
12:55 PM 42.8 °F 35.4 °F 21.2 °F 42% 29.84 in 10.0 mi SW 15.0 mph - N/A   Overcast
1:15 PM 44.6 °F 38.1 °F 21.2 °F 39% 29.83 in 10.0 mi SW 13.8 mph - N/A   Mostly Cloudy
1:35 PM 44.6 °F 38.8 °F 19.4 °F 37% 29.83 in 10.0 mi SW 11.5 mph - N/A   Partly Cloudy
1:55 PM 44.6 °F 39.7 °F 19.4 °F 37% 29.82 in 10.0 mi WSW 9.2 mph - N/A   Clear
2:15 PM 44.6 °F 38.1 °F 19.4 °F 37% 29.82 in 10.0 mi SW 13.8 mph - N/A   Partly Cloudy
2:35 PM 44.6 °F 37.8 °F 19.4 °F 37% 29.81 in 10.0 mi SW 15.0 mph - N/A   Scattered Clouds
2:55 PM 44.6 °F 37.8 °F 19.4 °F 37% 29.81 in 10.0 mi SW 15.0 mph - N/A   Scattered Clouds
3:15 PM 44.6 °F 38.8 °F 17.6 °F 34% 29.80 in 10.0 mi SW 11.5 mph - N/A   Partly Cloudy
3:35 PM 44.6 °F 39.2 °F 17.6 °F 34% 29.80 in 10.0 mi SW 10.4 mph - N/A   Clear
3:55 PM 44.6 °F 38.8 °F 15.8 °F 31% 29.80 in 10.0 mi SW 11.5 mph 18.4 mph N/A   Clear
4:15 PM 44.6 °F 39.2 °F 15.8 °F 31% 29.79 in 10.0 mi SW 10.4 mph - N/A   Clear
4:35 PM 44.6 °F 38.8 °F 15.8 °F 31% 29.79 in 10.0 mi SW 11.5 mph - N/A   Clear
4:55 PM 44.6 °F 38.1 °F 14.0 °F 29% 29.79 in 10.0 mi WSW 13.8 mph - N/A   Scattered Clouds
5:15 PM 42.8 °F 36.6 °F 14.0 °F 31% 29.79 in 10.0 mi WSW 11.5 mph - N/A   Scattered Clouds
5:35 PM 42.8 °F 36.2 °F 14.0 °F 31% 29.79 in 10.0 mi SW 12.7 mph - N/A   Mostly Cloudy
5:55 PM 42.8 °F 36.6 °F 12.2 °F 29% 29.78 in 10.0 mi SW 11.5 mph - N/A   Mostly Cloudy
6:15 PM 42.8 °F 37.5 °F 12.2 °F 29% 29.79 in 10.0 mi SW 9.2 mph - N/A   Mostly Cloudy
6:35 PM 41.0 °F 34.7 °F 12.2 °F 31% 29.79 in 10.0 mi SW 10.4 mph - N/A   Overcast
6:55 PM 39.2 °F 33.6 °F 12.2 °F 33% 29.79 in 10.0 mi SW 8.1 mph - N/A   Overcast
7:15 PM 39.2 °F 33.0 °F 12.2 °F 33% 29.78 in 10.0 mi SW 9.2 mph - N/A   Overcast
7:35 PM 39.2 °F 32.0 °F 12.2 °F 33% 29.79 in 10.0 mi SW 11.5 mph 16.1 mph N/A   Overcast
7:55 PM 39.2 °F 33.0 °F 12.2 °F 33% 29.79 in 10.0 mi SW 9.2 mph - N/A   Mostly Cloudy
8:15 PM 39.2 °F 35.9 °F 12.2 °F 33% 29.79 in 10.0 mi WSW 4.6 mph - N/A   Mostly Cloudy
8:35 PM 39.2 °F 33.0 °F 12.2 °F 33% 29.78 in 10.0 mi SW 9.2 mph - N/A   Clear
8:55 PM 39.2 °F 33.6 °F 12.2 °F 33% 29.79 in 10.0 mi WSW 8.1 mph - N/A   Clear
9:15 PM 39.2 °F 34.2 °F 12.2 °F 33% 29.78 in 10.0 mi SW 6.9 mph - N/A   Clear
9:35 PM 39.2 °F 34.2 °F 12.2 °F 33% 29.78 in 10.0 mi WSW 6.9 mph - N/A   Clear
9:55 PM 39.2 °F 35.0 °F 12.2 °F 33% 29.77 in 10.0 mi WSW 5.8 mph - N/A   Clear
10:15 PM 39.2 °F 34.2 °F 12.2 °F 33% 29.77 in 10.0 mi West 6.9 mph - N/A   Clear
10:35 PM 37.4 °F 32.1 °F 12.2 °F 36% 29.76 in 10.0 mi West 6.9 mph - N/A   Clear
10:55 PM 37.4 °F 32.8 °F 12.2 °F 36% 29.75 in 10.0 mi West 5.8 mph - N/A   Clear
11:15 PM 37.4 °F 33.8 °F 12.2 °F 36% 29.75 in 10.0 mi WSW 4.6 mph - N/A   Clear
11:35 PM 35.6 °F 29.9 °F 14.0 °F 41% 29.74 in 10.0 mi SW 6.9 mph - N/A   Clear
11:55 PM 35.6 °F 31.7 °F 15.8 °F 44% 29.73 in 10.0 mi WSW 4.6 mph - N/A   Clear